Weather in Luganville

Vanuatu     15°31′18″S   167°08′35″E
temp.,
°C
wind,
m/s
gust,
m/s
humid.,
%
clouds,
%
prec.,
mm/h
press.,
hPa
HPBL,
m
12 may, wed
wed1223:00+26ese68805 6.1 1012669
02:00+26se688334 1.0 1011658
05:00+26ese7108489 3.1 1010741
08:00+27e788353 4.1 1013683
11:00+27e5783100 7.1 1012673
14:00+27ene457720 1.9 1010801
17:00+27e567830 2.9 1010690
20:00+27e557898 0.4 1012679
13 may, thu
thu1323:00+26e3580100 1.6 1012406
02:00+26e2380100 2.9 1010298
05:00+26ne1281100 3.9 1010325
08:00+25e458884 4.3 1012404
11:00+26e4586100 7.3 1011449
14:00+25ese458998 2.4 1009489
17:00+26se458798 5.2 1009489
20:00+25se458985 4.3 1011445
14 may, fri
fri1423:00+25sse2487100 7.2 1010376
02:00+25sw339098 3.1 1008147
05:00+25wsw338748 7.0 1009174
08:00+26ssw238439 1.4 1011298
11:00+26sse668671 3.9 1010671
14:00+25se568689 2.8 1008589
17:00+26se568566 5.1 1009595
20:00+25sse348518 0.1 1010439
15 may, sat
sat1523:00+25ssw23855 0.1 1010288
02:00+25sw33898 1.1 1009194
05:00+24wsw23876 2.3 1010155
08:00+25w22815 0.1 1011162
11:00+28nne11687 0.1 1010494
14:00+28n11729 1.2 1009573
17:00+26w22797 3.3 1009343
20:00+25w22835 0.1 1011152
16 may, sun
sun1623:00+25w21855 0.1 1011119
02:00+25w22865 0.0 1010109
05:00+25w11855 0.1 101099
08:00+26nnw11825 0.1 1012208
11:00+28nne337499 0.1 1012730
14:00+28nne337419 1.4 1010525
17:00+27nnw238112 4.2 1010247
20:00+26nw11825 2.0 1012143